Date,TemperatureHighF,TemperatureAvgF,TemperatureLowF,DewpointHighF,DewpointAvgF,DewpointLowF,HumidityHigh,HumidityAvg,HumidityLow,PressureMaxIn,PressureMinIn,WindSpeedMaxMPH,WindSpeedAvgMPH,GustSpeedMaxMPH,PrecipitationSumIn
2013-5-1,82.8,72.9,67.4,73.0,69.0,65.8,97,88,67,29.98,29.91,8,2,19,0.80
2013-5-2,74.2,71.2,69.6,71.5,69.4,67.9,96,94,88,29.93,29.78,12,3,17,0.27
2013-5-3,86.7,75.4,68.7,71.2,68.7,65.1,93,81,56,29.81,29.63,9,4,24,0.06
2013-5-4,85.4,74.5,65.2,69.9,67.5,63.7,96,80,55,29.76,29.66,7,3,17,0.01
2013-5-5,79.3,71.9,64.4,66.8,58.7,46.1,95,67,33,29.90,29.72,9,4,18,0.27
2013-5-6,64.1,61.5,58.9,54.4,52.8,51.8,85,73,65,29.91,29.88,5,1,12,0.00
2013-5-7,81.6,69.9,56.1,60.5,56.6,53.1,92,65,45,30.03,29.94,9,4,20,0.00
2013-5-8,84.1,72.5,58.3,65.0,58.9,50.2,92,65,31,30.10,30.00,6,2,16,0.00
2013-5-9,83.5,74.6,64.0,72.8,67.1,60.1,89,78,65,30.12,30.04,6,2,14,0.00
2013-5-10,86.3,78.3,70.4,75.4,71.2,68.4,95,80,64,30.11,29.98,10,3,19,0.04
2013-5-11,92.3,78.9,70.7,75.4,70.9,65.2,96,79,41,30.06,29.92,8,3,19,0.69
2013-5-12,88.1,77.6,69.7,75.7,71.3,68.8,97,82,59,30.02,29.92,8,3,19,0.01
2013-5-13,74.3,71.5,69.0,70.8,68.7,66.6,94,91,84,30.01,29.96,10,1,10,0.00
2013-5-17,83.3,81.9,76.9,71.2,70.2,68.8,76,68,64,30.06,30.03,17,7,18,0.00
2013-5-18,81.3,73.6,69.1,72.4,69.2,67.0,95,87,73,30.08,30.03,6,0,6,0.00
2013-5-19,83.7,76.9,70.2,73.0,70.2,68.0,95,80,66,30.08,29.98,8,2,17,0.02
2013-5-20,81.8,75.2,70.2,74.3,70.6,67.4,95,86,69,30.06,29.95,7,2,14,0.31
2013-5-21,83.7,75.2,67.6,73.1,70.2,66.1,96,85,66,30.00,29.92,10,3,19,0.08
2013-5-22,83.3,75.7,69.5,75.4,71.5,68.0,96,87,68,29.94,29.87,9,2,19,0.12
2013-5-23,88.6,78.2,69.6,74.8,71.8,68.3,97,82,60,29.97,29.87,6,2,15,0.00
2013-5-24,90.9,80.9,70.0,74.3,70.0,64.0,94,72,43,30.01,29.92,11,2,16,0.00
2013-5-25,85.8,79.0,72.8,73.2,68.1,63.8,90,70,49,30.16,30.03,9,3,19,0.00
2013-5-26,73.4,71.3,68.5,63.8,61.2,59.7,74,70,67,30.15,30.10,2,0,10,0.00
2013-5-27,83.8,77.2,68.4,71.5,67.9,62.0,85,73,65,30.14,30.07,19,6,20,0.00
2013-5-28,76.8,76.7,76.4,71.8,70.7,70.1,85,82,80,30.11,30.05,10,7,16,0.00
2013-5-29,82.4,77.1,72.0,74.7,72.7,68.8,95,87,75,30.09,30.01,11,6,22,0.84
2013-5-30,79.2,75.8,72.8,74.0,72.2,70.2,94,89,85,30.08,30.01,17,5,18,0.80
2013-5-31,83.4,80.5,77.8,74.6,73.1,71.8,84,78,74,30.06,30.00,13,10,25,0.00